Change the Weather History Date:

Sunday, December 9, 2012

  Actual Average Record
Temperature  
Mean Temperature 22 °F -  
Max Temperature 26 °F 30 °F 41 °F (1984)
Min Temperature 19 °F 12 °F -8 °F (1989)
Degree Days  
Heating Degree Days 42    
Moisture  
Dew Point 21 °F    
Average Humidity 90    
Maximum Humidity 100    
Minimum Humidity 80    
Precipitation  
Precipitation 0.01 in - - ()
Sea Level Pressure  
Sea Level Pressure 30.12 in    
Wind  
Wind Speed 7 mph (ENE)    
Max Wind Speed 18 mph    
Max Gust Speed 21 mph    
Visibility 8 miles    
Events      
Averages and records for this station are not official NWS values.
T = Trace of Precipitation, MM = Missing Value Source: NWS Daily Summary

Daily Weather History Graph

Daily Weather History Graph

Search for Another Location

Airport or City:

Trip Planner

Search our weather history database for the weather conditions in past years. The results will help you decide how hot, cold, wet, or windy it might be!

Date:

Astronomy

Dec. 09, 2012 Rise Set
Actual Time 8:09 AM EST 4:51 PM EST
Civil Twilight 7:34 AM EST 5:26 PM EST
Nautical Twilight 6:56 AM EST 6:04 PM EST
Astronomical Twilight 6:20 AM EST 6:40 PM EST
Moon 3:30 AM EST (12/9) 2:07 PM EST (12/9)
Length of Visible Light 9h 51m
Length of Day
8h 42m
Waning Crescent, 19% of the Moon is Illuminated
Dec 9
Waning Crescent
Dec 13
New
Dec 20
First Quarter
Dec 28
Full
Jan 4
Last Quarter

Hourly Weather History & Observations

Time (EST) Temp. Windchill Dew Point Humidity Pressure Visibility Wind Dir Wind Speed Gust Speed Precip Events Conditions
12:15 AM 26.6 °F - 23.0 °F 86% 30.18 in 10.0 mi Calm Calm - N/A   Overcast
12:35 AM 26.6 °F - 24.8 °F 93% 30.17 in 10.0 mi Calm Calm - N/A   Overcast
12:55 AM 26.6 °F 22.6 °F 23.0 °F 86% 30.17 in 10.0 mi ENE 3.5 mph - N/A   Overcast
1:15 AM 26.6 °F 20.0 °F 23.0 °F 86% 30.17 in 10.0 mi NNE 5.8 mph - N/A   Overcast
1:35 AM 24.8 °F - 21.2 °F 86% 30.18 in 10.0 mi Calm Calm - N/A   Mostly Cloudy
1:55 AM 23.0 °F - 21.2 °F 93% 30.20 in 10.0 mi Calm Calm - N/A   Scattered Clouds
2:15 AM 23.0 °F - 19.4 °F 86% 30.20 in 10.0 mi Calm Calm - N/A   Partly Cloudy
2:35 AM 21.2 °F - 19.4 °F 93% 30.21 in 10.0 mi Calm Calm - N/A   Mostly Cloudy
2:55 AM 21.2 °F 14.9 °F 21.2 °F 100% 30.23 in 10.0 mi SSE 4.6 mph - N/A   Overcast
3:15 AM 23.0 °F 14.7 °F 21.2 °F 93% 30.23 in 10.0 mi SE 6.9 mph - N/A   Overcast
3:35 AM 24.8 °F 19.1 °F 23.0 °F 93% 30.23 in 10.0 mi SE 4.6 mph - N/A   Overcast
3:55 AM 24.8 °F 19.1 °F 23.0 °F 93% 30.23 in 10.0 mi ESE 4.6 mph - N/A   Overcast
4:15 AM 24.8 °F 20.5 °F 23.0 °F 93% 30.23 in 10.0 mi SE 3.5 mph - N/A   Overcast
4:35 AM 24.8 °F 20.5 °F 23.0 °F 93% 30.22 in 10.0 mi East 3.5 mph - N/A   Overcast
4:55 AM 24.8 °F - 23.0 °F 93% 30.24 in 10.0 mi Calm Calm - N/A   Overcast
5:15 AM 24.8 °F 20.5 °F 23.0 °F 93% 30.26 in 10.0 mi ENE 3.5 mph - N/A   Overcast
5:35 AM 24.8 °F 20.5 °F 23.0 °F 93% 30.25 in 10.0 mi NE 3.5 mph - N/A   Overcast
5:55 AM 24.8 °F 16.9 °F 23.0 °F 93% 30.25 in 10.0 mi ENE 6.9 mph - N/A   Overcast
6:15 AM 24.8 °F 16.1 °F 23.0 °F 93% 30.24 in 10.0 mi NE 8.1 mph - N/A   Overcast
6:35 AM 24.8 °F 16.1 °F 23.0 °F 93% 30.24 in 10.0 mi NE 8.1 mph - N/A   Overcast
6:55 AM 24.8 °F 16.9 °F 23.0 °F 93% 30.24 in 10.0 mi ENE 6.9 mph - N/A   Overcast
7:15 AM 24.8 °F 16.9 °F 21.2 °F 86% 30.24 in 10.0 mi ENE 6.9 mph - N/A   Overcast
7:35 AM 24.8 °F 15.3 °F 21.2 °F 86% 30.23 in 10.0 mi East 9.2 mph - N/A   Overcast
7:55 AM 24.8 °F 16.1 °F 21.2 °F 86% 30.22 in 10.0 mi East 8.1 mph - N/A   Overcast
8:15 AM 24.8 °F 16.1 °F 21.2 °F 86% 30.24 in 10.0 mi East 8.1 mph - N/A   Overcast
8:35 AM 24.8 °F 15.3 °F 21.2 °F 86% 30.22 in 10.0 mi East 9.2 mph - N/A   Overcast
8:55 AM 24.8 °F 16.1 °F 21.2 °F 86% 30.24 in 10.0 mi East 8.1 mph - N/A   Overcast
9:15 AM 24.8 °F 16.1 °F 21.2 °F 86% 30.25 in 10.0 mi East 8.1 mph - N/A   Overcast
9:35 AM 24.8 °F 14.6 °F 21.2 °F 86% 30.25 in 10.0 mi East 10.4 mph - N/A   Overcast
9:55 AM 24.8 °F 14.6 °F 21.2 °F 86% 30.25 in 10.0 mi East 10.4 mph - N/A   Overcast
10:15 AM 24.8 °F 14.0 °F 21.2 °F 86% 30.25 in 10.0 mi East 11.5 mph - N/A   Overcast
10:35 AM 24.8 °F 14.0 °F 21.2 °F 86% 30.24 in 10.0 mi ENE 11.5 mph - N/A   Overcast
10:55 AM 24.8 °F 14.0 °F 21.2 °F 86% 30.24 in 10.0 mi East 11.5 mph - N/A   Overcast
11:15 AM 26.6 °F 18.2 °F 21.2 °F 80% 30.23 in 10.0 mi East 8.1 mph - N/A   Overcast
11:35 AM 24.8 °F 11.1 °F 21.2 °F 86% 30.20 in 10.0 mi East 18.4 mph - N/A   Overcast
11:55 AM 24.8 °F 12.4 °F 19.4 °F 80% 30.19 in 10.0 mi East 15.0 mph - N/A   Overcast
12:15 PM 24.8 °F 12.9 °F 21.2 °F 86% 30.19 in 10.0 mi East 13.8 mph 20.7 mph N/A   Overcast
12:35 PM 24.8 °F 15.3 °F 21.2 °F 86% 30.19 in 10.0 mi East 9.2 mph - N/A   Overcast
12:55 PM 24.8 °F 13.4 °F 21.2 °F 86% 30.18 in 10.0 mi East 12.7 mph - N/A   Overcast
1:15 PM 24.8 °F 14.0 °F 19.4 °F 80% 30.17 in 10.0 mi East 11.5 mph - N/A   Overcast
1:35 PM 24.8 °F 14.6 °F 19.4 °F 80% 30.17 in 10.0 mi East 10.4 mph - N/A   Overcast
1:55 PM 24.8 °F 12.9 °F 19.4 °F 80% 30.15 in 10.0 mi East 13.8 mph - N/A   Overcast
2:15 PM 24.8 °F 12.4 °F 19.4 °F 80% 30.14 in 10.0 mi East 15.0 mph - N/A   Overcast
2:35 PM 24.8 °F 12.4 °F 19.4 °F 80% 30.12 in 10.0 mi East 15.0 mph - N/A   Overcast
2:55 PM 24.8 °F 12.9 °F 19.4 °F 80% 30.12 in 10.0 mi East 13.8 mph - N/A   Overcast
3:15 PM 24.8 °F 12.9 °F 19.4 °F 80% 30.10 in 10.0 mi ENE 13.8 mph - N/A   Overcast
3:35 PM 23.0 °F 10.1 °F 17.6 °F 80% 30.09 in 10.0 mi ENE 15.0 mph 18.4 mph N/A   Overcast
3:55 PM 23.0 °F 12.4 °F 17.6 °F 80% 30.08 in 10.0 mi ENE 10.4 mph - N/A   Overcast
4:15 PM 23.0 °F 11.1 °F 17.6 °F 80% 30.08 in 10.0 mi East 12.7 mph - N/A   Overcast
4:35 PM 23.0 °F 11.7 °F 19.4 °F 86% 30.07 in 3.0 mi ENE 11.5 mph 17.3 mph N/A   Overcast
4:55 PM 23.0 °F 11.7 °F 19.4 °F 86% 30.06 in 2.0 mi ENE 11.5 mph - N/A   Overcast
5:15 PM 21.2 °F 10.9 °F 21.2 °F 100% 30.05 in 1.5 mi ENE 9.2 mph - N/A   Overcast
5:35 PM 21.2 °F 9.5 °F 21.2 °F 100% 30.03 in 2.0 mi ENE 11.5 mph - N/A   Overcast
5:55 PM 21.2 °F 7.3 °F 21.2 °F 100% 30.01 in 1.8 mi ENE 16.1 mph 19.6 mph N/A   Overcast
6:15 PM 21.2 °F 6.8 °F 19.4 °F 93% 30.00 in 2.5 mi ENE 17.3 mph 20.7 mph N/A   Overcast
6:35 PM 21.2 °F 8.3 °F 19.4 °F 93% 29.98 in 2.5 mi ENE 13.8 mph 20.7 mph N/A   Overcast
6:55 PM 21.2 °F 8.9 °F 19.4 °F 93% 29.98 in 1.5 mi East 12.7 mph 20.7 mph N/A   Overcast
7:15 PM 21.2 °F 8.3 °F 19.4 °F 93% 29.97 in 2.0 mi ENE 13.8 mph - N/A   Overcast
7:35 PM 19.4 °F 6.0 °F 19.4 °F 100% 29.95 in 3.0 mi ENE 13.8 mph 18.4 mph N/A   Overcast
7:55 PM 19.4 °F 6.0 °F 19.4 °F 100% 29.94 in 4.0 mi NE 13.8 mph 18.4 mph N/A   Overcast
8:15 PM 19.4 °F 6.0 °F 19.4 °F 100% 29.93 in 4.0 mi ENE 13.8 mph - N/A   Overcast
8:35 PM 19.4 °F 6.0 °F 19.4 °F 100% 29.91 in 4.0 mi NE 13.8 mph - N/A   Overcast
8:55 PM 19.4 °F 6.6 °F 17.6 °F 93% 29.90 in 1.5 mi NE 12.7 mph - N/A   Overcast
9:15 PM 19.4 °F 9.5 °F 17.6 °F 93% 29.90 in 1.8 mi NE 8.1 mph - N/A   Overcast
9:35 PM 19.4 °F 7.9 °F 17.6 °F 93% 29.90 in 2.0 mi NE 10.4 mph - N/A   Overcast
9:55 PM 19.4 °F 7.2 °F 19.4 °F 100% 29.87 in 2.5 mi NE 11.5 mph 16.1 mph N/A   Overcast
10:15 PM 19.4 °F 8.6 °F 17.6 °F 93% 29.85 in 1.0 mi NE 9.2 mph - N/A   Overcast
10:35 PM 19.4 °F 8.6 °F 17.6 °F 93% 29.84 in 1.2 mi NNE 9.2 mph - N/A   Overcast
10:55 PM 19.4 °F 9.5 °F 17.6 °F 93% 29.84 in 1.2 mi NNE 8.1 mph - N/A   Overcast
11:15 PM 19.4 °F 8.6 °F 19.4 °F 100% 29.84 in 1.5 mi NNE 9.2 mph - 0.01 in   Overcast
11:35 PM 19.4 °F 8.6 °F 19.4 °F 100% 29.82 in 1.8 mi NNE 9.2 mph - 0.01 in   Overcast
11:55 PM 19.4 °F 7.9 °F 19.4 °F 100% 29.82 in 3.0 mi NE 10.4 mph - 0.01 in   Overcast